Weather History for Elmira, NY

Change the Weather History Date:

Monday, September 9, 2013

  Actual Average Record
Temperature  
Mean Temperature 56 °F -  
Max Temperature 75 °F 76 °F 95 °F (2002)
Min Temperature 37 °F 50 °F 36 °F (1956)
Degree Days  
Heating Degree Days 9    
Growing Degree Days 6 (Base 50)    
Moisture  
Dew Point 44 °F    
Average Humidity 80    
Maximum Humidity 100    
Minimum Humidity 42    
Precipitation  
Precipitation 0.00 in - - ()
Sea Level Pressure  
Sea Level Pressure 30.16 in    
Wind  
Wind Speed 2 mph (SW)    
Max Wind Speed 15 mph    
Max Gust Speed 17 mph    
Visibility 5 miles    
Events Fog    
Averages and records for this station are not official NWS values.
T = Trace of Precipitation, MM = Missing Value Source: NWS Daily Summary

Daily Weather History Graph

Daily Weather History Graph

Search for Another Location

Airport:

Trip Planner

Search our weather history database for the weather conditions in past years. The results will help you decide how hot, cold, wet, or windy it might be!

Date:

Astronomy

Sep. 09, 2013 Rise Set
Actual Time 6:41 AM EDT 7:27 PM EDT
Civil Twilight 6:13 AM EDT 7:55 PM EDT
Nautical Twilight 5:39 AM EDT 8:29 PM EDT
Astronomical Twilight 5:04 AM EDT 9:03 PM EDT
Moon 11:06 AM EDT (9/9) 9:36 PM EDT (9/9)
Length of Visible Light 13h 42m
Length of Day
12h 45m
Waxing Crescent, 19% of the Moon is Illuminated
Sep 9
Waxing Crescent
Sep 12
First Quarter
Sep 19
Full
Sep 26
Last Quarter
Oct 4
New

Hourly Weather History & Observations

Time (EDT) Temp. Windchill Dew Point Humidity Pressure Visibility Wind Dir Wind Speed Gust Speed Precip Events Conditions
12:53 AM 42.1 °F - 41.0 °F 96% 30.16 in 10.0 mi Calm Calm - N/A   Clear
1:45 AM 41.0 °F - 39.2 °F 93% 30.15 in 1.5 mi Calm Calm - N/A   Clear
1:53 AM 41.0 °F - 39.0 °F 93% 30.16 in 1.8 mi Calm Calm - N/A   Clear
1:55 AM 39.2 °F - 39.2 °F 100% 30.15 in 4.0 mi Calm Calm - N/A   Clear
2:53 AM 37.9 °F - 37.0 °F 97% 30.17 in 7.0 mi Calm Calm - N/A   Clear
3:12 AM 39.2 °F - 37.4 °F 93% 30.16 in 1.8 mi Calm Calm - N/A   Clear
3:22 AM 37.4 °F - 37.4 °F 100% 30.16 in 0.5 mi Calm Calm - N/A Fog Fog
3:31 AM 37.4 °F - 35.6 °F 93% 30.17 in 2.5 mi Calm Calm - N/A   Clear
3:41 AM 41.0 °F - 39.2 °F 93% 30.17 in 2.5 mi Calm Calm - N/A   Scattered Clouds
3:43 AM 39.2 °F - 39.2 °F 100% 30.17 in 5.0 mi Calm Calm - N/A   Mostly Cloudy
3:53 AM 39.9 °F - 39.0 °F 97% 30.18 in 5.0 mi Calm Calm - N/A   Mostly Cloudy
3:58 AM 41.0 °F - 39.2 °F 93% 30.18 in 1.5 mi Calm Calm - N/A   Overcast
4:05 AM 42.8 °F 41.1 °F 39.2 °F 87% 30.18 in 0.2 mi SW 3.5 mph - N/A Fog Fog
4:34 AM 42.8 °F - 42.8 °F 100% 30.19 in 0.2 mi Calm Calm - N/A Fog Fog
4:53 AM 42.1 °F - 41.0 °F 96% 30.20 in 0.2 mi Calm Calm - N/A Fog Fog
5:39 AM 42.8 °F 41.1 °F 39.2 °F 87% 30.20 in 0.2 mi North 3.5 mph - N/A Fog Fog
5:53 AM 42.1 °F - 39.9 °F 92% 30.20 in 0.2 mi Calm Calm - N/A Fog Fog
6:12 AM 42.8 °F - 41.0 °F 93% 30.20 in 0.2 mi Calm Calm - N/A Fog Fog
6:44 AM 42.8 °F - 39.2 °F 87% 30.21 in 0.2 mi Calm Calm - N/A Fog Fog
6:53 AM 41.0 °F 39.0 °F 39.9 °F 96% 30.22 in 0.2 mi North 3.5 mph - N/A Fog Fog
7:53 AM 42.1 °F - 39.9 °F 92% 30.23 in 0.2 mi Calm Calm - N/A Fog Fog
8:53 AM 44.1 °F - 43.0 °F 96% 30.23 in 0.5 mi Calm Calm - N/A Fog Fog
9:23 AM 44.6 °F - 44.6 °F 100% 30.21 in 1.0 mi Calm Calm - N/A   Overcast
9:50 AM 46.4 °F - 44.6 °F 93% 30.20 in 3.0 mi Calm Calm - N/A   Mostly Cloudy
9:53 AM 46.9 °F - 45.0 °F 93% 30.22 in 3.0 mi Calm Calm - N/A   Scattered Clouds
10:53 AM 57.0 °F - 46.0 °F 67% 30.20 in 10.0 mi Calm Calm - N/A   Clear
11:53 AM 64.0 °F - 46.0 °F 52% 30.17 in 10.0 mi WSW 4.6 mph - N/A   Clear
12:53 PM 70.0 °F - 46.0 °F 42% 30.13 in 10.0 mi South 8.1 mph 17.3 mph N/A   Clear
1:53 PM 72.0 °F - 48.0 °F 43% 30.12 in 10.0 mi South 3.5 mph - N/A   Clear
2:53 PM 72.0 °F - 50.0 °F 46% 30.11 in 10.0 mi SSW 5.8 mph - N/A   Clear
3:53 PM 75.9 °F - 52.0 °F 43% 30.07 in 10.0 mi SSW 15.0 mph - N/A   Partly Cloudy
4:53 PM 73.0 °F - 53.1 °F 49% 30.06 in 10.0 mi SSW 8.1 mph - N/A   Scattered Clouds
5:53 PM 72.0 °F - 52.0 °F 49% 30.07 in 10.0 mi SSW 6.9 mph - N/A   Mostly Cloudy
6:53 PM 71.1 °F - 52.0 °F 51% 30.07 in 10.0 mi SW 11.5 mph - N/A   Partly Cloudy
7:53 PM 69.1 °F - 52.0 °F 54% 30.07 in 10.0 mi SSW 8.1 mph - N/A   Mostly Cloudy
8:53 PM 68.0 °F - 53.1 °F 59% 30.09 in 10.0 mi WSW 5.8 mph - N/A   Overcast
9:53 PM 68.0 °F - 53.1 °F 59% 30.09 in 10.0 mi SW 6.9 mph - N/A   Overcast
10:53 PM 66.9 °F - 54.0 °F 63% 30.08 in 10.0 mi WSW 6.9 mph - N/A   Overcast
11:53 PM 64.0 °F - 55.9 °F 75% 30.07 in 10.0 mi West 4.6 mph - N/A   Scattered Clouds